Location: Prairie View Elementary School
(39.8322°N, 99.5698°W)
Time: 14:03:47
(UTC+00:00)

FengYun 1-2 T - Pass Details

Date: 08 December 2019
Orbit: 847 x 880 km, 98.7° (Epoch: 22 January)

Event Time Altitude Azimuth Distance (km) Brightness Sun altitude
Rises 00:18:06 0° 148° (SSE) 3,396 7.2 -12.2°
Reaches altitude 10° 00:20:32 10° 142° (SE) 2,464 6.4 -12.6°
Maximum altitude 00:25:44 47° 70° (ENE) 1,114 4.4 -13.5°
Drops below altitude 10° 00:30:59 10° 359° (N) 2,483 6.5 -14.5°
Sets 00:33:26 0° 353° (N) 3,426 7.3 -14.9°
